DW8067 Weather Reports


Display with metric or nautical units.
time (UTC)temp
F
wind
direction
speed
MPH
gust
MPH
rain 1hr
in
rain 24hr
in
rain mn
in
humidity
%
barometer
mb
20260504180044 74 235 2.0 4.0 0.00 0.00 0.00 43 1016.3
20260504174544 75 170 0.0 2.0 0.00 0.00 0.00 39 1016.5
20260504173037 73 319 0.0 3.0 0.00 0.00 0.00 41 1016.6
20260504171537 72 257 1.0 4.0 0.00 0.00 0.00 42 1016.8
20260504081515 49 3 0.0 0.0 0.00 0.00 0.00 94 1017.7
20260504060104 51 3 0.0 0.0 0.00 0.00 0.00 88 1017.8
20260504044555 52 3 0.0 0.0 0.00 0.00 0.00 85 1018.2
20260504043058 52 3 0.0 0.0 0.00 0.00 0.00 86 1018.1
20260504041548 53 3 0.0 0.0 0.00 0.00 0.00 86 1018.2
20260504040100 53 3 0.0 0.0 0.00 0.00 0.00 86 1018.3
20260504034544 54 3 0.0 0.0 0.00 0.00 0.00 85 1018.3
20260504033048 54 3 0.0 0.0 0.00 0.00 0.00 84 1018.1
20260504031554 54 7 0.0 0.0 0.00 0.00 0.00 84 1018.2
20260504030044 55 323 0.0 0.0 0.00 0.00 0.00 81 1018.1
20260504024544 55 323 0.0 0.0 0.00 0.00 0.00 79 1017.9
20260504023042 56 323 0.0 0.0 0.00 0.00 0.00 77 1017.7
20260504021541 56 323 0.0 0.0 0.00 0.00 0.00 76 1017.4
20260504020043 57 323 0.0 0.0 0.00 0.00 0.00 74 1017.2
20260504014542 57 323 0.0 0.0 0.00 0.00 0.00 72 1017.0
20260504013042 58 323 0.0 0.0 0.00 0.00 0.00 70 1016.9
20260504011541 59 323 0.0 0.0 0.00 0.00 0.00 68 1016.8
20260504010038 60 323 0.0 0.0 0.00 0.00 0.00 65 1016.6
20260504004538 61 323 0.0 0.0 0.00 0.00 0.00 61 1016.5
20260504003038 63 323 0.0 0.0 0.00 0.00 0.00 59 1016.3
20260504001545 64 323 0.0 0.0 0.00 0.00 0.00 54 1016.2
20260504000037 66 323 0.0 0.0 0.00 0.00 0.00 50 1016.2
20260503234558 68 323 0.0 0.0 0.00 0.00 0.00 47 1016.3
20260503233044 70 212 0.0 0.0 0.00 0.00 0.00 45 1016.2
20260503231535 72 212 0.0 1.0 0.00 0.00 0.00 40 1016.3
20260503230033 71 200 0.0 2.0 0.00 0.00 0.00 37 1016.3
20260503224532 70 257 0.0 5.0 0.00 0.00 0.00 42 1016.4
20260503223032 70 213 3.0 9.0 0.00 0.00 0.00 43 1016.4
20260503221535 70 245 2.0 10.0 0.00 0.00 0.00 39 1016.5
20260503220031 70 288 0.0 3.0 0.00 0.00 0.00 40 1016.6
20260503214531 70 263 1.0 7.0 0.00 0.00 0.00 38 1016.7
20260503213033 70 242 3.0 8.0 0.00 0.00 0.00 37 1016.8
20260503211530 71 146 0.0 7.0 0.00 0.00 0.00 39 1016.9
20260503210028 72 82 0.0 3.0 0.00 0.00 0.00 35 1017.0
20260503204526 71 267 1.0 7.0 0.00 0.00 0.00 37 1017.0
20260503203023 70 247 3.0 9.0 0.00 0.00 0.00 45 1017.1
20260503201523 70 264 5.0 8.0 0.00 0.00 0.00 42 1017.3
20260503200022 70 210 2.0 8.0 0.00 0.00 0.00 39 1017.6
20260503194523 69 248 3.0 5.0 0.00 0.00 0.00 40 1017.7
20260503193021 70 240 5.0 13.0 0.00 0.00 0.00 40 1018.1
20260503191525 69 226 3.0 7.0 0.00 0.00 0.00 40 1018.4
20260503190020 69 233 2.0 5.0 0.00 0.00 0.00 39 1018.7
20260503184518 69 148 0.0 7.0 0.00 0.00 0.00 38 1019.0
20260503183018 68 212 1.0 7.0 0.00 0.00 0.00 41 1019.2
20260503181515 69 166 0.0 2.0 0.00 0.00 0.00 41 1019.3